contact:dominique.lefevre@mio.osupytheas.fr, maurice.libes@osupytheas.fr, didier.mallarino@osupytheas.fr
Project:EMSO http://www.emso-fr.org/EMSO-France
Depth: 2436.0 m
Title:EMSO Ligure Ouest : Data MII capteur MICROCAT
DateTime_Computer,Latitude,Longitude,Temperature,Conductivity,Pressure,DateTime_Instrument
DateTime_Computer,Latitude,Longitude,degC,S m-1,dbar,DateTime_Instrument
2019-09-30T00:00:00Z,42.805,6.029,13.2961,4.59962,2469.914,2019-9-30T02:00:24Z
2019-09-30T00:03:03Z,42.805,6.029,13.2958,4.59956,2469.876,2019-9-30T02:03:28Z
2019-09-30T00:06:07Z,42.805,6.029,13.2957,4.59958,2469.876,2019-9-30T02:06:31Z
2019-09-30T00:09:10Z,42.805,6.029,13.2960,4.59956,2469.876,2019-9-30T02:09:34Z
2019-09-30T00:12:13Z,42.805,6.029,13.2959,4.59958,2469.9,2019-9-30T02:12:37Z
2019-09-30T00:15:16Z,42.805,6.029,13.2958,4.59957,2469.853,2019-9-30T02:15:40Z
2019-09-30T00:18:19Z,42.805,6.029,13.2957,4.59959,2469.876,2019-9-30T02:18:44Z
2019-09-30T00:21:23Z,42.805,6.029,13.2958,4.59960,2469.853,2019-9-30T02:21:47Z
2019-09-30T00:24:26Z,42.805,6.029,13.2961,4.59956,2469.863,2019-9-30T02:24:50Z
2019-09-30T00:27:29Z,42.805,6.029,13.2960,4.59957,2469.867,2019-9-30T02:27:53Z
2019-09-30T00:30:32Z,42.805,6.029,13.2958,4.59962,2469.867,2019-9-30T02:30:57Z
2019-09-30T00:33:36Z,42.805,6.029,13.2958,4.59957,2469.867,2019-9-30T02:34:00Z
2019-09-30T00:36:39Z,42.805,6.029,13.2958,4.59958,2469.844,2019-9-30T02:37:03Z
2019-09-30T00:39:42Z,42.805,6.029,13.2961,4.59958,2469.876,2019-9-30T02:40:06Z
2019-09-30T00:42:45Z,42.805,6.029,13.2958,4.59958,2469.853,2019-9-30T02:43:09Z
2019-09-30T00:45:48Z,42.805,6.029,13.2957,4.59957,2469.853,2019-9-30T02:46:13Z
2019-09-30T00:48:52Z,42.805,6.029,13.2961,4.59961,2469.853,2019-9-30T02:49:16Z
2019-09-30T00:51:55Z,42.805,6.029,13.2956,4.59957,2469.853,2019-9-30T02:52:19Z
2019-09-30T00:54:58Z,42.805,6.029,13.2958,4.59956,2469.83,2019-9-30T02:55:22Z
2019-09-30T00:58:01Z,42.805,6.029,13.2963,4.59957,2469.844,2019-9-30T02:58:25Z
2019-09-30T01:01:04Z,42.805,6.029,13.2958,4.59957,2469.83,2019-9-30T03:01:28Z
2019-09-30T01:04:07Z,42.805,6.029,13.2959,4.59958,2469.844,2019-9-30T03:04:32Z
2019-09-30T01:07:11Z,42.805,6.029,13.2963,4.59961,2469.844,2019-9-30T03:07:35Z
2019-09-30T01:10:14Z,42.805,6.029,13.2958,4.59956,2469.821,2019-9-30T03:10:38Z
2019-09-30T01:13:17Z,42.805,6.029,13.2958,4.59955,2469.83,2019-9-30T03:13:41Z
2019-09-30T01:16:20Z,42.805,6.029,13.2960,4.59958,2469.83,2019-9-30T03:16:44Z
2019-09-30T01:19:23Z,42.805,6.029,13.2958,4.59962,2469.806,2019-9-30T03:19:48Z
2019-09-30T01:22:27Z,42.805,6.029,13.2958,4.59960,2469.821,2019-9-30T03:22:51Z
2019-09-30T01:25:30Z,42.805,6.029,13.2957,4.59961,2469.806,2019-9-30T03:25:54Z
2019-09-30T01:28:33Z,42.805,6.029,13.2956,4.59957,2469.806,2019-9-30T03:28:58Z
2019-09-30T01:31:37Z,42.805,6.029,13.2960,4.59960,2469.821,2019-9-30T03:32:01Z
2019-09-30T01:34:40Z,42.805,6.029,13.2955,4.59960,2469.844,2019-9-30T03:35:04Z
2019-09-30T01:37:43Z,42.805,6.029,13.2958,4.59957,2469.806,2019-9-30T03:38:07Z
2019-09-30T01:40:46Z,42.805,6.029,13.2958,4.59957,2469.821,2019-9-30T03:41:10Z
2019-09-30T01:43:49Z,42.805,6.029,13.2958,4.59960,2469.806,2019-9-30T03:44:14Z
2019-09-30T01:46:52Z,42.805,6.029,13.2959,4.59964,2469.806,2019-9-30T03:47:17Z
2019-09-30T01:49:56Z,42.805,6.029,13.2960,4.59958,2469.783,2019-9-30T03:50:20Z
2019-09-30T01:52:59Z,42.805,6.029,13.2958,4.59964,2469.76,2019-9-30T03:53:23Z
2019-09-30T01:56:02Z,42.805,6.029,13.2957,4.59958,2469.783,2019-9-30T03:56:26Z
2019-09-30T01:59:05Z,42.805,6.029,13.2957,4.59960,2469.783,2019-9-30T03:59:29Z
2019-09-30T02:02:08Z,42.805,6.029,13.2958,4.59960,2469.821,2019-9-30T04:02:33Z
2019-09-30T02:05:12Z,42.805,6.029,13.2961,4.59961,2469.797,2019-9-30T04:05:36Z
2019-09-30T02:08:15Z,42.805,6.029,13.2960,4.59958,2469.797,2019-9-30T04:08:39Z
2019-09-30T02:11:18Z,42.805,6.029,13.2961,4.59957,2469.783,2019-9-30T04:11:42Z
2019-09-30T02:14:21Z,42.805,6.029,13.2962,4.59956,2469.773,2019-9-30T04:14:45Z
2019-09-30T02:17:24Z,42.805,6.029,13.2961,4.59958,2469.797,2019-9-30T04:17:49Z
2019-09-30T02:20:28Z,42.805,6.029,13.2959,4.59957,2469.76,2019-9-30T04:20:52Z
2019-09-30T02:23:31Z,42.805,6.029,13.2954,4.59955,2469.773,2019-9-30T04:23:55Z
2019-09-30T02:26:34Z,42.805,6.029,13.2957,4.59964,2469.76,2019-9-30T04:26:58Z
2019-09-30T02:29:37Z,42.805,6.029,13.2960,4.59963,2469.783,2019-9-30T04:30:01Z
2019-09-30T02:32:40Z,42.805,6.029,13.2958,4.59959,2469.783,2019-9-30T04:33:05Z
2019-09-30T02:35:44Z,42.805,6.029,13.2954,4.59964,2469.806,2019-9-30T04:36:08Z
2019-09-30T02:38:47Z,42.805,6.029,13.2957,4.59961,2469.76,2019-9-30T04:39:11Z
2019-09-30T02:41:50Z,42.805,6.029,13.2959,4.59957,2469.773,2019-9-30T04:42:14Z
2019-09-30T02:44:53Z,42.805,6.029,13.2953,4.59958,2469.797,2019-9-30T04:45:17Z
2019-09-30T02:47:56Z,42.805,6.029,13.2956,4.59956,2469.76,2019-9-30T04:48:20Z
2019-09-30T02:50:59Z,42.805,6.029,13.2961,4.59956,2469.783,2019-9-30T04:51:24Z
2019-09-30T02:54:03Z,42.805,6.029,13.2957,4.59958,2469.821,2019-9-30T04:54:27Z
2019-09-30T02:57:06Z,42.805,6.029,13.2960,4.59957,2469.773,2019-9-30T04:57:30Z
2019-09-30T03:00:09Z,42.805,6.029,13.2958,4.59964,2469.773,2019-9-30T05:00:33Z
2019-09-30T03:03:12Z,42.805,6.029,13.2959,4.59958,2469.783,2019-9-30T05:03:36Z
2019-09-30T03:06:15Z,42.805,6.029,13.2957,4.59976,2469.773,2019-9-30T05:06:40Z
2019-09-30T03:09:19Z,42.805,6.029,13.2957,4.59964,2469.773,2019-9-30T05:09:43Z
2019-09-30T03:12:22Z,42.805,6.029,13.2959,4.59957,2469.783,2019-9-30T05:12:46Z
2019-09-30T03:15:25Z,42.805,6.029,13.2957,4.59960,2469.737,2019-9-30T05:15:49Z
2019-09-30T03:18:28Z,42.805,6.029,13.2958,4.59961,2469.76,2019-9-30T05:18:53Z
2019-09-30T03:21:32Z,42.805,6.029,13.2963,4.59957,2469.783,2019-9-30T05:21:56Z
2019-09-30T03:24:35Z,42.805,6.029,13.2960,4.59963,2469.783,2019-9-30T05:24:59Z
2019-09-30T03:27:38Z,42.805,6.029,13.2961,4.59963,2469.806,2019-9-30T05:28:02Z
2019-09-30T03:30:41Z,42.805,6.029,13.2958,4.59958,2469.773,2019-9-30T05:31:05Z
2019-09-30T03:33:44Z,42.805,6.029,13.2959,4.59957,2469.76,2019-9-30T05:34:08Z
2019-09-30T03:36:47Z,42.805,6.029,13.2958,4.59958,2469.783,2019-9-30T05:37:12Z
2019-09-30T03:39:51Z,42.805,6.029,13.2958,4.59958,2469.783,2019-9-30T05:40:15Z
2019-09-30T03:42:54Z,42.805,6.029,13.2958,4.59960,2469.797,2019-9-30T05:43:18Z
2019-09-30T03:45:57Z,42.805,6.029,13.2959,4.59957,2469.783,2019-9-30T05:46:21Z
2019-09-30T03:49:00Z,42.805,6.029,13.2955,4.59958,2469.844,2019-9-30T05:49:24Z
2019-09-30T03:52:03Z,42.805,6.029,13.2958,4.59958,2469.783,2019-9-30T05:52:28Z
2019-09-30T03:55:07Z,42.805,6.029,13.2958,4.59958,2469.783,2019-9-30T05:55:31Z
2019-09-30T03:58:10Z,42.805,6.029,13.2957,4.59957,2469.806,2019-9-30T05:58:34Z
2019-09-30T04:01:13Z,42.805,6.029,13.2958,4.59958,2469.773,2019-9-30T06:01:37Z
2019-09-30T04:04:16Z,42.805,6.029,13.2961,4.59956,2469.821,2019-9-30T06:04:40Z
2019-09-30T04:07:19Z,42.805,6.029,13.2957,4.59958,2469.806,2019-9-30T06:07:44Z
2019-09-30T04:10:22Z,42.805,6.029,13.2959,4.59959,2469.821,2019-9-30T06:10:47Z
2019-09-30T04:13:26Z,42.805,6.029,13.2958,4.59959,2469.783,2019-9-30T06:13:50Z
2019-09-30T04:16:29Z,42.805,6.029,13.2957,4.59958,2469.83,2019-9-30T06:16:53Z
2019-09-30T04:19:32Z,42.805,6.029,13.2960,4.59959,2469.806,2019-9-30T06:19:56Z
2019-09-30T04:22:35Z,42.805,6.029,13.2962,4.59959,2469.83,2019-9-30T06:22:59Z
2019-09-30T04:25:38Z,42.805,6.029,13.2958,4.59961,2469.806,2019-9-30T06:26:03Z
2019-09-30T04:28:42Z,42.805,6.029,13.2960,4.59968,2469.83,2019-9-30T06:29:06Z
2019-09-30T04:31:45Z,42.805,6.029,13.2960,4.59968,2469.821,2019-9-30T06:32:09Z
2019-09-30T04:34:48Z,42.805,6.029,13.2958,4.59960,2469.844,2019-9-30T06:35:12Z
2019-09-30T04:37:51Z,42.805,6.029,13.2961,4.59958,2469.844,2019-9-30T06:38:15Z
2019-09-30T04:40:54Z,42.805,6.029,13.2959,4.59963,2469.867,2019-9-30T06:41:19Z
2019-09-30T04:43:58Z,42.805,6.029,13.2959,4.59962,2469.821,2019-9-30T06:44:22Z
2019-09-30T04:47:01Z,42.805,6.029,13.2959,4.59971,2469.83,2019-9-30T06:47:25Z
2019-09-30T04:50:04Z,42.805,6.029,13.2960,4.59966,2469.83,2019-9-30T06:50:28Z
2019-09-30T04:53:07Z,42.805,6.029,13.2960,4.59971,2469.867,2019-9-30T06:53:31Z
2019-09-30T04:56:10Z,42.805,6.029,13.2960,4.59962,2469.853,2019-9-30T06:56:34Z
2019-09-30T04:59:13Z,42.805,6.029,13.2959,4.59960,2469.876,2019-9-30T06:59:38Z
2019-09-30T05:02:17Z,42.805,6.029,13.2959,4.59966,2469.89,2019-9-30T07:02:41Z
2019-09-30T05:05:20Z,42.805,6.029,13.2962,4.59966,2469.9,2019-9-30T07:05:44Z
2019-09-30T05:08:23Z,42.805,6.029,13.2960,4.59960,2469.853,2019-9-30T07:08:47Z
2019-09-30T05:11:26Z,42.805,6.029,13.2961,4.59963,2469.853,2019-9-30T07:11:50Z
2019-09-30T05:14:29Z,42.805,6.029,13.2961,4.59972,2469.914,2019-9-30T07:14:54Z
2019-09-30T05:17:33Z,42.805,6.029,13.2964,4.59966,2469.89,2019-9-30T07:17:57Z
2019-09-30T05:20:36Z,42.805,6.029,13.2956,4.59973,2469.867,2019-9-30T07:21:00Z
2019-09-30T05:23:39Z,42.805,6.029,13.2961,4.59970,2469.914,2019-9-30T07:24:03Z
2019-09-30T05:26:42Z,42.805,6.029,13.2957,4.59976,2469.9,2019-9-30T07:27:06Z
2019-09-30T05:29:45Z,42.805,6.029,13.2957,4.59971,2469.937,2019-9-30T07:30:10Z
2019-09-30T05:32:49Z,42.805,6.029,13.2961,4.59968,2469.9,2019-9-30T07:33:13Z
2019-09-30T05:35:52Z,42.805,6.029,13.2959,4.59972,2469.89,2019-9-30T07:36:16Z
2019-09-30T05:38:55Z,42.805,6.029,13.2963,4.59961,2469.9,2019-9-30T07:39:19Z
2019-09-30T05:41:58Z,42.805,6.029,13.2959,4.59977,2469.937,2019-9-30T07:42:22Z
2019-09-30T05:45:01Z,42.805,6.029,13.2961,4.59961,2469.937,2019-9-30T07:45:26Z
2019-09-30T05:48:05Z,42.805,6.029,13.2959,4.59975,2469.914,2019-9-30T07:48:29Z
2019-09-30T05:51:08Z,42.805,6.029,13.2955,4.59972,2469.97,2019-9-30T07:51:32Z
2019-09-30T05:54:11Z,42.805,6.029,13.2961,4.59964,2469.96,2019-9-30T07:54:35Z
2019-09-30T05:57:14Z,42.805,6.029,13.2962,4.59974,2469.96,2019-9-30T07:57:38Z
2019-09-30T06:00:17Z,42.805,6.029,13.2958,4.59971,2469.947,2019-9-30T08:00:41Z
2019-09-30T06:03:20Z,42.805,6.029,13.2957,4.59975,2469.984,2019-9-30T08:03:45Z
2019-09-30T06:06:24Z,42.805,6.029,13.2961,4.59961,2469.923,2019-9-30T08:06:48Z
2019-09-30T06:09:27Z,42.805,6.029,13.2961,4.59977,2469.947,2019-9-30T08:09:51Z
2019-09-30T06:12:30Z,42.805,6.029,13.2963,4.59969,2469.947,2019-9-30T08:12:54Z
2019-09-30T06:15:33Z,42.805,6.029,13.2956,4.59976,2469.947,2019-9-30T08:15:57Z
2019-09-30T06:18:36Z,42.805,6.029,13.2961,4.59979,2469.923,2019-9-30T08:19:01Z
2019-09-30T06:21:40Z,42.805,6.029,13.2958,4.59966,2469.947,2019-9-30T08:22:04Z
2019-09-30T06:24:43Z,42.805,6.029,13.2961,4.59973,2469.97,2019-9-30T08:25:07Z
2019-09-30T06:27:46Z,42.805,6.029,13.2957,4.59974,2470.007,2019-9-30T08:28:10Z
2019-09-30T06:30:49Z,42.805,6.029,13.2958,4.59967,2469.97,2019-9-30T08:31:13Z
2019-09-30T06:33:52Z,42.805,6.029,13.2961,4.59966,2469.97,2019-9-30T08:34:17Z
2019-09-30T06:36:56Z,42.805,6.029,13.2957,4.59978,2469.96,2019-9-30T08:37:20Z
2019-09-30T06:39:59Z,42.805,6.029,13.2957,4.59965,2470.007,2019-9-30T08:40:23Z
2019-09-30T06:43:02Z,42.805,6.029,13.2958,4.59971,2469.984,2019-9-30T08:43:26Z
2019-09-30T06:46:05Z,42.805,6.029,13.2963,4.59979,2470.007,2019-9-30T08:46:29Z
2019-09-30T06:49:08Z,42.805,6.029,13.2962,4.59966,2469.993,2019-9-30T08:49:33Z
2019-09-30T06:52:12Z,42.805,6.029,13.2961,4.59977,2470.03,2019-9-30T08:52:36Z
2019-09-30T06:55:15Z,42.805,6.029,13.2963,4.59970,2470.04,2019-9-30T08:55:39Z
2019-09-30T06:58:18Z,42.805,6.029,13.2958,4.59967,2469.993,2019-9-30T08:58:42Z
2019-09-30T07:01:21Z,42.805,6.029,13.2961,4.59973,2469.984,2019-9-30T09:01:45Z
2019-09-30T07:04:24Z,42.805,6.029,13.2959,4.59972,2470.007,2019-9-30T09:04:49Z
2019-09-30T07:07:27Z,42.805,6.029,13.2961,4.59967,2470.017,2019-9-30T09:07:52Z
2019-09-30T07:10:31Z,42.805,6.029,13.2957,4.59973,2469.97,2019-9-30T09:10:55Z
2019-09-30T07:13:34Z,42.805,6.029,13.2958,4.59966,2470.077,2019-9-30T09:13:58Z
2019-09-30T07:16:37Z,42.805,6.029,13.2956,4.59963,2470.03,2019-9-30T09:17:01Z
2019-09-30T07:19:40Z,42.805,6.029,13.2959,4.59965,2469.993,2019-9-30T09:20:04Z
2019-09-30T07:22:44Z,42.805,6.029,13.2961,4.59969,2470.007,2019-9-30T09:23:08Z
2019-09-30T07:25:47Z,42.805,6.029,13.2962,4.59967,2470.017,2019-9-30T09:26:11Z
2019-09-30T07:28:50Z,42.805,6.029,13.2958,4.59966,2470.017,2019-9-30T09:29:14Z
2019-09-30T07:31:54Z,42.805,6.029,13.2960,4.59967,2470.017,2019-9-30T09:32:18Z
2019-09-30T07:34:57Z,42.805,6.029,13.2960,4.59965,2470.04,2019-9-30T09:35:21Z
2019-09-30T07:38:00Z,42.805,6.029,13.2955,4.59964,2470.007,2019-9-30T09:38:24Z
2019-09-30T07:41:03Z,42.805,6.029,13.2959,4.59966,2470.007,2019-9-30T09:41:28Z
2019-09-30T07:44:07Z,42.805,6.029,13.2957,4.59964,2469.993,2019-9-30T09:44:31Z
2019-09-30T07:47:10Z,42.805,6.029,13.2958,4.59966,2470.007,2019-9-30T09:47:34Z
2019-09-30T07:50:13Z,42.805,6.029,13.2959,4.59971,2470.03,2019-9-30T09:50:37Z
2019-09-30T07:53:16Z,42.805,6.029,13.2958,4.59966,2470.017,2019-9-30T09:53:40Z
2019-09-30T07:56:19Z,42.805,6.029,13.2957,4.59967,2470.03,2019-9-30T09:56:43Z
2019-09-30T07:59:22Z,42.805,6.029,13.2960,4.59970,2470.007,2019-9-30T09:59:47Z
2019-09-30T08:02:26Z,42.805,6.029,13.2961,4.59964,2469.979,2019-9-30T10:02:50Z
2019-09-30T08:05:29Z,42.805,6.029,13.2959,4.59970,2469.993,2019-9-30T10:05:53Z
2019-09-30T08:08:32Z,42.805,6.029,13.2956,4.59963,2470.017,2019-9-30T10:08:56Z
2019-09-30T08:11:35Z,42.805,6.029,13.2961,4.59965,2470.017,2019-9-30T10:11:59Z
2019-09-30T08:14:38Z,42.805,6.029,13.2955,4.59964,2470.03,2019-9-30T10:15:03Z
2019-09-30T08:17:42Z,42.805,6.029,13.2961,4.59970,2470.04,2019-9-30T10:18:06Z
2019-09-30T08:20:45Z,42.805,6.029,13.2961,4.59961,2470.03,2019-9-30T10:21:09Z
2019-09-30T08:23:48Z,42.805,6.029,13.2961,4.59963,2470.04,2019-9-30T10:24:12Z
2019-09-30T08:26:51Z,42.805,6.029,13.2960,4.59964,2470.04,2019-9-30T10:27:15Z
2019-09-30T08:29:54Z,42.805,6.029,13.2957,4.59965,2470.017,2019-9-30T10:30:19Z
2019-09-30T08:32:58Z,42.805,6.029,13.2958,4.59964,2470.007,2019-9-30T10:33:22Z
2019-09-30T08:36:01Z,42.805,6.029,13.2960,4.59969,2470.017,2019-9-30T10:36:25Z
2019-09-30T08:39:04Z,42.805,6.029,13.2958,4.59966,2469.993,2019-9-30T10:39:28Z
2019-09-30T08:42:07Z,42.805,6.029,13.2961,4.59966,2470.017,2019-9-30T10:42:31Z
2019-09-30T08:45:10Z,42.805,6.029,13.2957,4.59966,2469.993,2019-9-30T10:45:35Z
2019-09-30T08:48:14Z,42.805,6.029,13.2962,4.59969,2470.007,2019-9-30T10:48:38Z
2019-09-30T08:51:17Z,42.805,6.029,13.2959,4.59976,2470.017,2019-9-30T10:51:41Z
2019-09-30T08:54:20Z,42.805,6.029,13.2959,4.59964,2469.993,2019-9-30T10:54:44Z
2019-09-30T08:57:23Z,42.805,6.029,13.2957,4.59964,2470.017,2019-9-30T10:57:47Z
2019-09-30T09:00:26Z,42.805,6.029,13.2958,4.59965,2470.03,2019-9-30T11:00:51Z
2019-09-30T09:03:30Z,42.805,6.029,13.2957,4.59966,2470.007,2019-9-30T11:03:54Z
2019-09-30T09:06:33Z,42.805,6.029,13.2959,4.59964,2470.007,2019-9-30T11:06:57Z
2019-09-30T09:09:36Z,42.805,6.029,13.2960,4.59964,2470.03,2019-9-30T11:10:00Z
2019-09-30T09:12:39Z,42.805,6.029,13.2961,4.59965,2470.017,2019-9-30T11:13:03Z
2019-09-30T09:15:42Z,42.805,6.029,13.2959,4.59964,2470.007,2019-9-30T11:16:07Z
2019-09-30T09:18:46Z,42.805,6.029,13.2961,4.59966,2470.03,2019-9-30T11:19:10Z
2019-09-30T09:21:49Z,42.805,6.029,13.2960,4.59965,2469.993,2019-9-30T11:22:13Z
2019-09-30T09:24:52Z,42.805,6.029,13.2958,4.59963,2469.97,2019-9-30T11:25:16Z
2019-09-30T09:27:55Z,42.805,6.029,13.2958,4.59961,2470.007,2019-9-30T11:28:19Z
2019-09-30T09:30:58Z,42.805,6.029,13.2958,4.59971,2470.007,2019-9-30T11:31:23Z
2019-09-30T09:34:01Z,42.805,6.029,13.2960,4.59967,2469.97,2019-9-30T11:34:26Z
2019-09-30T09:37:05Z,42.805,6.029,13.2961,4.59966,2470.007,2019-9-30T11:37:29Z
2019-09-30T09:40:08Z,42.805,6.029,13.2957,4.59965,2469.984,2019-9-30T11:40:32Z
2019-09-30T09:43:11Z,42.805,6.029,13.2958,4.59969,2469.993,2019-9-30T11:43:35Z
2019-09-30T09:46:14Z,42.805,6.029,13.2962,4.59967,2470.03,2019-9-30T11:46:39Z
2019-09-30T09:49:18Z,42.805,6.029,13.2963,4.59966,2469.984,2019-9-30T11:49:42Z
2019-09-30T09:52:21Z,42.805,6.029,13.2958,4.59966,2469.993,2019-9-30T11:52:45Z
2019-09-30T09:55:24Z,42.805,6.029,13.2964,4.59964,2469.97,2019-9-30T11:55:48Z
2019-09-30T09:58:27Z,42.805,6.029,13.2961,4.59961,2469.97,2019-9-30T11:58:51Z
2019-09-30T10:01:30Z,42.805,6.029,13.2955,4.59961,2469.937,2019-9-30T12:01:55Z
2019-09-30T10:04:34Z,42.805,6.029,13.2964,4.59968,2469.97,2019-9-30T12:04:58Z
2019-09-30T10:07:37Z,42.805,6.029,13.2961,4.59968,2469.984,2019-9-30T12:08:01Z
2019-09-30T10:10:40Z,42.805,6.029,13.2958,4.59966,2469.984,2019-9-30T12:11:04Z
2019-09-30T10:13:43Z,42.805,6.029,13.2962,4.59960,2469.97,2019-9-30T12:14:07Z
2019-09-30T10:16:46Z,42.805,6.029,13.2958,4.59964,2469.947,2019-9-30T12:17:11Z
2019-09-30T10:19:50Z,42.805,6.029,13.2960,4.59964,2469.984,2019-9-30T12:20:14Z
2019-09-30T10:22:53Z,42.805,6.029,13.2960,4.59962,2469.947,2019-9-30T12:23:17Z
2019-09-30T10:25:56Z,42.805,6.029,13.2959,4.59960,2469.96,2019-9-30T12:26:20Z
2019-09-30T10:28:59Z,42.805,6.029,13.2961,4.59963,2469.984,2019-9-30T12:29:23Z
2019-09-30T10:32:02Z,42.805,6.029,13.2958,4.59962,2469.984,2019-9-30T12:32:26Z
2019-09-30T10:35:05Z,42.805,6.029,13.2958,4.59961,2469.97,2019-9-30T12:35:30Z
2019-09-30T10:38:09Z,42.805,6.029,13.2959,4.59961,2469.96,2019-9-30T12:38:33Z
2019-09-30T10:41:12Z,42.805,6.029,13.2961,4.59966,2469.97,2019-9-30T12:41:36Z
2019-09-30T10:44:15Z,42.805,6.029,13.2960,4.59969,2469.947,2019-9-30T12:44:39Z
2019-09-30T10:47:18Z,42.805,6.029,13.2962,4.59961,2469.984,2019-9-30T12:47:42Z
2019-09-30T10:50:21Z,42.805,6.029,13.2956,4.59964,2469.947,2019-9-30T12:50:46Z
2019-09-30T10:53:25Z,42.805,6.029,13.2959,4.59961,2469.9,2019-9-30T12:53:49Z
2019-09-30T10:56:28Z,42.805,6.029,13.2959,4.59963,2469.937,2019-9-30T12:56:52Z
2019-09-30T10:59:31Z,42.805,6.029,13.2959,4.59964,2469.923,2019-9-30T12:59:55Z
2019-09-30T11:02:34Z,42.805,6.029,13.2958,4.59964,2469.923,2019-9-30T13:02:58Z
2019-09-30T11:05:37Z,42.805,6.029,13.2957,4.59968,2469.923,2019-9-30T13:06:02Z
2019-09-30T11:08:41Z,42.805,6.029,13.2960,4.59961,2469.9,2019-9-30T13:09:05Z
2019-09-30T11:11:44Z,42.805,6.029,13.2957,4.59962,2469.914,2019-9-30T13:12:08Z
2019-09-30T11:14:47Z,42.805,6.029,13.2961,4.59966,2469.923,2019-9-30T13:15:11Z
2019-09-30T11:17:50Z,42.805,6.029,13.2961,4.59965,2469.914,2019-9-30T13:18:14Z
2019-09-30T11:20:53Z,42.805,6.029,13.2958,4.59964,2469.923,2019-9-30T13:21:18Z
2019-09-30T11:23:57Z,42.805,6.029,13.2959,4.59966,2469.937,2019-9-30T13:24:21Z
2019-09-30T11:27:00Z,42.805,6.029,13.2959,4.59966,2469.923,2019-9-30T13:27:24Z
2019-09-30T11:30:03Z,42.805,6.029,13.2959,4.59968,2469.9,2019-9-30T13:30:27Z
2019-09-30T11:33:06Z,42.805,6.029,13.2959,4.59966,2469.914,2019-9-30T13:33:30Z
2019-09-30T11:36:09Z,42.805,6.029,13.2961,4.59966,2469.9,2019-9-30T13:36:34Z
2019-09-30T11:39:13Z,42.805,6.029,13.2960,4.59973,2469.9,2019-9-30T13:39:37Z
2019-09-30T11:42:16Z,42.805,6.029,13.2958,4.59967,2469.914,2019-9-30T13:42:40Z
2019-09-30T11:45:19Z,42.805,6.029,13.2955,4.59971,2469.876,2019-9-30T13:45:43Z
2019-09-30T11:48:22Z,42.805,6.029,13.2964,4.59965,2469.89,2019-9-30T13:48:46Z
2019-09-30T11:51:25Z,42.805,6.029,13.2957,4.59965,2469.9,2019-9-30T13:51:50Z
2019-09-30T11:54:29Z,42.805,6.029,13.2958,4.59968,2469.876,2019-9-30T13:54:53Z
2019-09-30T11:57:32Z,42.805,6.029,13.2957,4.59962,2469.89,2019-9-30T13:57:56Z
2019-09-30T12:00:35Z,42.805,6.029,13.2964,4.59963,2469.876,2019-9-30T14:00:59Z
2019-09-30T12:03:38Z,42.805,6.029,13.2958,4.59966,2469.876,2019-9-30T14:04:02Z
2019-09-30T12:06:41Z,42.805,6.029,13.2960,4.59964,2469.876,2019-9-30T14:07:06Z
2019-09-30T12:09:44Z,42.805,6.029,13.2958,4.59965,2469.89,2019-9-30T14:10:09Z
2019-09-30T12:12:48Z,42.805,6.029,13.2961,4.59966,2469.876,2019-9-30T14:13:12Z
2019-09-30T12:15:51Z,42.805,6.029,13.2958,4.59968,2469.89,2019-9-30T14:16:15Z
2019-09-30T12:18:54Z,42.805,6.029,13.2961,4.59966,2469.853,2019-9-30T14:19:18Z
2019-09-30T12:21:57Z,42.805,6.029,13.2961,4.59963,2469.876,2019-9-30T14:22:22Z
2019-09-30T12:25:01Z,42.805,6.029,13.2961,4.59964,2469.844,2019-9-30T14:25:25Z
2019-09-30T12:28:04Z,42.805,6.029,13.2956,4.59961,2469.914,2019-9-30T14:28:28Z
2019-09-30T12:31:07Z,42.805,6.029,13.2959,4.59966,2469.853,2019-9-30T14:31:31Z
2019-09-30T12:34:10Z,42.805,6.029,13.2958,4.59962,2469.83,2019-9-30T14:34:34Z
2019-09-30T12:37:13Z,42.805,6.029,13.2960,4.59959,2469.876,2019-9-30T14:37:38Z
2019-09-30T12:40:17Z,42.805,6.029,13.2961,4.59964,2469.83,2019-9-30T14:40:41Z
2019-09-30T12:43:20Z,42.805,6.029,13.2961,4.59965,2469.89,2019-9-30T14:43:44Z
2019-09-30T12:46:23Z,42.805,6.029,13.2958,4.59961,2469.876,2019-9-30T14:46:47Z
2019-09-30T12:49:26Z,42.805,6.029,13.2962,4.59970,2469.853,2019-9-30T14:49:51Z
2019-09-30T12:52:29Z,42.805,6.029,13.2960,4.59962,2469.83,2019-9-30T14:52:54Z
2019-09-30T12:55:33Z,42.805,6.029,13.2961,4.59959,2469.83,2019-9-30T14:55:57Z
2019-09-30T12:58:36Z,42.805,6.029,13.2961,4.59960,2469.83,2019-9-30T14:59:00Z
2019-09-30T13:01:39Z,42.805,6.029,13.2961,4.59961,2469.821,2019-9-30T15:02:04Z
2019-09-30T13:04:43Z,42.805,6.029,13.2961,4.59959,2469.83,2019-9-30T15:05:07Z
2019-09-30T13:07:46Z,42.805,6.029,13.2960,4.59963,2469.83,2019-9-30T15:08:10Z
2019-09-30T13:10:49Z,42.805,6.029,13.2960,4.59961,2469.806,2019-9-30T15:11:13Z
2019-09-30T13:13:52Z,42.805,6.029,13.2961,4.59958,2469.844,2019-9-30T15:14:16Z
2019-09-30T13:16:55Z,42.805,6.029,13.2963,4.59964,2469.83,2019-9-30T15:17:19Z
2019-09-30T13:19:58Z,42.805,6.029,13.2957,4.59958,2469.844,2019-9-30T15:20:23Z
2019-09-30T13:23:02Z,42.805,6.029,13.2958,4.59958,2469.83,2019-9-30T15:23:26Z
2019-09-30T13:26:05Z,42.805,6.029,13.2964,4.59958,2469.806,2019-9-30T15:26:29Z
2019-09-30T13:29:08Z,42.805,6.029,13.2958,4.59960,2469.844,2019-9-30T15:29:32Z
2019-09-30T13:32:11Z,42.805,6.029,13.2962,4.59958,2469.83,2019-9-30T15:32:35Z
2019-09-30T13:35:14Z,42.805,6.029,13.2958,4.59959,2469.806,2019-9-30T15:35:39Z
2019-09-30T13:38:18Z,42.805,6.029,13.2956,4.59959,2469.83,2019-9-30T15:38:42Z
2019-09-30T13:41:21Z,42.805,6.029,13.2960,4.59960,2469.797,2019-9-30T15:41:45Z
2019-09-30T13:44:24Z,42.805,6.029,13.2963,4.59961,2469.783,2019-9-30T15:44:48Z
2019-09-30T13:47:27Z,42.805,6.029,13.2959,4.59958,2469.821,2019-9-30T15:47:51Z
2019-09-30T13:50:30Z,42.805,6.029,13.2957,4.59959,2469.844,2019-9-30T15:50:55Z
2019-09-30T13:53:34Z,42.805,6.029,13.2960,4.59962,2469.806,2019-9-30T15:53:58Z
2019-09-30T13:56:37Z,42.805,6.029,13.2961,4.59963,2469.83,2019-9-30T15:57:01Z
2019-09-30T13:59:41Z,42.805,6.029,13.2961,4.59963,2469.806,2019-9-30T16:00:05Z
2019-09-30T14:02:44Z,42.805,6.029,13.2958,4.59960,2469.83,2019-9-30T16:03:08Z
2019-09-30T14:05:47Z,42.805,6.029,13.2958,4.59961,2469.783,2019-9-30T16:06:11Z
2019-09-30T14:08:50Z,42.805,6.029,13.2957,4.59963,2469.783,2019-9-30T16:09:14Z
2019-09-30T14:11:53Z,42.805,6.029,13.2960,4.59960,2469.783,2019-9-30T16:12:18Z
2019-09-30T14:14:56Z,42.805,6.029,13.2960,4.59961,2469.797,2019-9-30T16:15:21Z
2019-09-30T14:18:00Z,42.805,6.029,13.2964,4.59961,2469.806,2019-9-30T16:18:24Z
2019-09-30T14:21:03Z,42.805,6.029,13.2960,4.59960,2469.783,2019-9-30T16:21:27Z
2019-09-30T14:24:06Z,42.805,6.029,13.2964,4.59961,2469.806,2019-9-30T16:24:30Z
2019-09-30T14:27:09Z,42.805,6.029,13.2955,4.59966,2469.806,2019-9-30T16:27:33Z
2019-09-30T14:30:12Z,42.805,6.029,13.2958,4.59963,2469.783,2019-9-30T16:30:37Z
2019-09-30T14:33:16Z,42.805,6.029,13.2962,4.59967,2469.783,2019-9-30T16:33:40Z
2019-09-30T14:36:19Z,42.805,6.029,13.2957,4.59959,2469.797,2019-9-30T16:36:43Z
2019-09-30T14:39:22Z,42.805,6.029,13.2958,4.59961,2469.821,2019-9-30T16:39:46Z
2019-09-30T14:42:25Z,42.805,6.029,13.2960,4.59959,2469.737,2019-9-30T16:42:49Z
2019-09-30T14:45:28Z,42.805,6.029,13.2959,4.59958,2469.783,2019-9-30T16:45:53Z
2019-09-30T14:48:32Z,42.805,6.029,13.2959,4.59960,2469.806,2019-9-30T16:48:56Z
2019-09-30T14:51:35Z,42.805,6.029,13.2961,4.59958,2469.83,2019-9-30T16:51:59Z
2019-09-30T14:54:38Z,42.805,6.029,13.2958,4.59962,2469.797,2019-9-30T16:55:02Z
2019-09-30T14:57:41Z,42.805,6.029,13.2958,4.59958,2469.76,2019-9-30T16:58:05Z
2019-09-30T15:00:44Z,42.805,6.029,13.2961,4.59958,2469.797,2019-9-30T17:01:09Z
2019-09-30T15:03:48Z,42.805,6.029,13.2961,4.59963,2469.76,2019-9-30T17:04:12Z
2019-09-30T15:06:51Z,42.805,6.029,13.2959,4.59960,2469.773,2019-9-30T17:07:15Z
2019-09-30T15:09:54Z,42.805,6.029,13.2958,4.59967,2469.773,2019-9-30T17:10:18Z
2019-09-30T15:12:57Z,42.805,6.029,13.2958,4.59965,2469.773,2019-9-30T17:13:22Z